Year,Month,Day,Hour,Minute,Value (Times are PST for temperature in C)
2018,08,21,00,00,19.70
2018,08,21,00,01,19.60
2018,08,21,00,02,19.60
2018,08,21,00,03,19.50
2018,08,21,00,04,19.50
2018,08,21,00,05,19.50
2018,08,21,00,06,19.40
2018,08,21,00,07,19.40
2018,08,21,00,08,19.40
2018,08,21,00,09,19.40
2018,08,21,00,10,19.40
2018,08,21,00,11,19.30
2018,08,21,00,12,19.30
2018,08,21,00,13,19.30
2018,08,21,00,14,19.30
2018,08,21,00,15,19.20
2018,08,21,00,16,19.20
2018,08,21,00,17,19.20
2018,08,21,00,18,19.20
2018,08,21,00,19,19.20
2018,08,21,00,20,19.10
2018,08,21,00,21,19.10
2018,08,21,00,22,19.10
2018,08,21,00,23,19.10
2018,08,21,00,24,19.10
2018,08,21,00,25,19.20
2018,08,21,00,26,19.20
2018,08,21,00,27,19.20
2018,08,21,00,28,19.20
2018,08,21,00,29,19.20
2018,08,21,00,30,19.20
2018,08,21,00,31,19.20
2018,08,21,00,32,19.30
2018,08,21,00,33,19.30
2018,08,21,00,34,19.30
2018,08,21,00,35,19.30
2018,08,21,00,36,19.30
2018,08,21,00,37,19.30
2018,08,21,00,38,19.30
2018,08,21,00,39,19.30
2018,08,21,00,40,19.30
2018,08,21,00,41,19.30
2018,08,21,00,42,19.20
2018,08,21,00,43,19.20
2018,08,21,00,44,19.10
2018,08,21,00,45,19.10
2018,08,21,00,46,19.10
2018,08,21,00,47,19.00
2018,08,21,00,48,19.00
2018,08,21,00,49,18.90
2018,08,21,00,50,18.90
2018,08,21,00,51,18.90
2018,08,21,00,52,18.80
2018,08,21,00,53,18.80
2018,08,21,00,54,18.80
2018,08,21,00,55,18.80
2018,08,21,00,56,18.80
2018,08,21,00,57,18.80
2018,08,21,00,58,18.80
2018,08,21,00,59,18.70
2018,08,21,01,00,18.70
2018,08,21,01,01,18.70
2018,08,21,01,02,18.70
2018,08,21,01,03,18.70
2018,08,21,01,04,18.60
2018,08,21,01,05,18.60
2018,08,21,01,06,18.60
2018,08,21,01,07,18.60
2018,08,21,01,08,18.50
2018,08,21,01,09,18.50
2018,08,21,01,10,18.40
2018,08,21,01,11,18.40
2018,08,21,01,12,18.40
2018,08,21,01,13,18.40
2018,08,21,01,14,18.30
2018,08,21,01,15,18.30
2018,08,21,01,16,18.30
2018,08,21,01,17,18.30
2018,08,21,01,18,18.20
2018,08,21,01,19,18.20
2018,08,21,01,20,18.20
2018,08,21,01,21,18.20
2018,08,21,01,22,18.20
2018,08,21,01,23,18.10
2018,08,21,01,24,18.10
2018,08,21,01,25,18.10
2018,08,21,01,26,18.10
2018,08,21,01,27,18.00
2018,08,21,01,28,18.00
2018,08,21,01,29,18.00
2018,08,21,01,30,17.90
2018,08,21,01,31,17.90
2018,08,21,01,32,17.90
2018,08,21,01,33,17.80
2018,08,21,01,34,17.80
2018,08,21,01,35,17.80
2018,08,21,01,36,17.80
2018,08,21,01,37,17.80
2018,08,21,01,38,17.80
2018,08,21,01,39,17.80
2018,08,21,01,40,17.80
2018,08,21,01,41,17.80
2018,08,21,01,42,17.80
2018,08,21,01,43,17.80
2018,08,21,01,44,17.80
2018,08,21,01,45,17.80
2018,08,21,01,46,17.70
2018,08,21,01,47,17.70
2018,08,21,01,48,17.70
2018,08,21,01,49,17.60
2018,08,21,01,50,17.60
2018,08,21,01,51,17.60
2018,08,21,01,52,17.50
2018,08,21,01,53,17.50
2018,08,21,01,54,17.50
2018,08,21,01,55,17.40
2018,08,21,01,56,17.40
2018,08,21,01,57,17.30
2018,08,21,01,58,17.30
2018,08,21,01,59,17.30
2018,08,21,02,00,17.20
2018,08,21,02,01,17.20
2018,08,21,02,02,17.20
2018,08,21,02,03,17.20
2018,08,21,02,04,17.20
2018,08,21,02,05,17.10
2018,08,21,02,06,17.10
2018,08,21,02,07,17.10
2018,08,21,02,08,17.00
2018,08,21,02,09,17.00
2018,08,21,02,10,17.00
2018,08,21,02,11,16.90
2018,08,21,02,12,16.90
2018,08,21,02,13,16.90
2018,08,21,02,14,16.90
2018,08,21,02,15,16.90
2018,08,21,02,16,16.80
2018,08,21,02,17,16.80
2018,08,21,02,18,16.80
2018,08,21,02,19,16.80
2018,08,21,02,20,16.70
2018,08,21,02,21,16.70
2018,08,21,02,22,16.70
2018,08,21,02,23,16.60
2018,08,21,02,24,16.60
2018,08,21,02,25,16.60
2018,08,21,02,26,16.50
2018,08,21,02,27,16.50
2018,08,21,02,28,16.50
2018,08,21,02,29,16.40
2018,08,21,02,30,16.40
2018,08,21,02,31,16.40
2018,08,21,02,32,16.40
2018,08,21,02,33,16.40
2018,08,21,02,34,16.40
2018,08,21,02,35,16.40
2018,08,21,02,36,16.30
2018,08,21,02,37,16.30
2018,08,21,02,38,16.30
2018,08,21,02,39,16.30
2018,08,21,02,40,16.30
2018,08,21,02,41,16.30
2018,08,21,02,42,16.30
2018,08,21,02,43,16.30
2018,08,21,02,44,16.30
2018,08,21,02,45,16.20
2018,08,21,02,46,16.20
2018,08,21,02,47,16.20
2018,08,21,02,48,16.20
2018,08,21,02,49,16.20
2018,08,21,02,50,16.20
2018,08,21,02,51,16.20
2018,08,21,02,52,16.20
2018,08,21,02,53,16.20
2018,08,21,02,54,16.20
2018,08,21,02,55,16.10
2018,08,21,02,56,16.10
2018,08,21,02,57,16.10
2018,08,21,02,58,16.10
2018,08,21,02,59,16.10
2018,08,21,03,00,16.10
2018,08,21,03,01,16.10
2018,08,21,03,02,16.00
2018,08,21,03,03,16.00
2018,08,21,03,04,16.00
2018,08,21,03,05,16.00
2018,08,21,03,06,16.00
2018,08,21,03,07,16.00
2018,08,21,03,08,15.90
2018,08,21,03,09,15.90
2018,08,21,03,10,15.90
2018,08,21,03,11,15.90
2018,08,21,03,12,15.90
2018,08,21,03,13,15.90
2018,08,21,03,14,15.90
2018,08,21,03,15,15.90
2018,08,21,03,16,15.90
2018,08,21,03,17,15.90
2018,08,21,03,18,15.90
2018,08,21,03,19,15.90
2018,08,21,03,20,15.90
2018,08,21,03,21,15.90
2018,08,21,03,22,15.90
2018,08,21,03,23,16.00
2018,08,21,03,24,15.90
2018,08,21,03,25,16.00
2018,08,21,03,26,16.00
2018,08,21,03,27,16.00
2018,08,21,03,28,16.00
2018,08,21,03,29,16.00
2018,08,21,03,30,16.00
2018,08,21,03,31,16.00
2018,08,21,03,32,16.00
2018,08,21,03,33,16.00
2018,08,21,03,34,16.00
2018,08,21,03,35,16.00
2018,08,21,03,36,16.00
2018,08,21,03,37,16.00
2018,08,21,03,38,16.00
2018,08,21,03,39,16.00
2018,08,21,03,40,16.00
2018,08,21,03,41,16.10
2018,08,21,03,42,16.10
2018,08,21,03,43,16.10
2018,08,21,03,44,16.10
2018,08,21,03,45,16.10
2018,08,21,03,46,16.10
2018,08,21,03,47,16.10
2018,08,21,03,48,16.10
2018,08,21,03,49,16.10
2018,08,21,03,50,16.10
2018,08,21,03,51,16.10
2018,08,21,03,52,16.10
2018,08,21,03,53,16.10
2018,08,21,03,54,16.10
2018,08,21,03,55,16.10
2018,08,21,03,56,16.10
2018,08,21,03,57,16.10
2018,08,21,03,58,16.00
2018,08,21,03,59,16.00
2018,08,21,04,00,16.00
2018,08,21,04,01,15.90
2018,08,21,04,02,15.90
2018,08,21,04,03,15.90
2018,08,21,05,04,15.30
2018,08,21,05,05,15.30
2018,08,21,05,06,15.30
2018,08,21,05,07,15.30
2018,08,21,05,08,15.30
2018,08,21,05,09,15.30
2018,08,21,05,10,15.30
2018,08,21,05,11,15.30
2018,08,21,05,12,15.30
2018,08,21,05,13,15.30
2018,08,21,05,14,15.30
2018,08,21,05,15,15.30
2018,08,21,05,16,15.20
2018,08,21,05,17,15.20
2018,08,21,05,18,15.20
2018,08,21,05,19,15.20
2018,08,21,05,20,15.20
2018,08,21,05,21,15.20
2018,08,21,05,22,15.20
2018,08,21,05,23,15.20
2018,08,21,05,24,15.10
2018,08,21,05,25,15.10
2018,08,21,05,26,15.10
2018,08,21,05,27,15.10
2018,08,21,05,28,15.10
2018,08,21,05,29,15.10
2018,08,21,05,30,15.10
2018,08,21,05,31,15.10
2018,08,21,05,32,15.10
2018,08,21,05,33,15.10
2018,08,21,05,34,15.10
2018,08,21,05,35,15.00
2018,08,21,05,36,15.00
2018,08,21,05,37,15.00
2018,08,21,05,38,15.00
2018,08,21,05,39,14.90
2018,08,21,05,40,14.90
2018,08,21,05,41,14.90
2018,08,21,05,42,14.90
2018,08,21,05,43,14.90
2018,08,21,05,44,14.90
2018,08,21,05,45,14.90
2018,08,21,05,46,14.90
2018,08,21,05,47,14.90
2018,08,21,05,48,14.90
2018,08,21,05,49,14.90
2018,08,21,05,50,14.90
2018,08,21,05,51,15.00
2018,08,21,05,52,15.00
2018,08,21,05,53,15.10
2018,08,21,05,54,15.10
2018,08,21,05,55,15.10
2018,08,21,05,56,15.10
2018,08,21,05,57,15.00
2018,08,21,05,58,15.00
2018,08,21,05,59,15.00
2018,08,21,06,00,15.00
2018,08,21,06,01,14.90
2018,08,21,06,02,14.90
2018,08,21,06,03,14.90
2018,08,21,06,04,14.90
2018,08,21,06,05,14.90
2018,08,21,06,06,14.90
2018,08,21,06,07,14.90
2018,08,21,06,08,14.90
2018,08,21,06,09,14.80
2018,08,21,06,10,14.80
2018,08,21,06,11,14.80
2018,08,21,06,12,14.80
2018,08,21,06,13,14.80
2018,08,21,06,14,14.80
2018,08,21,06,15,14.80
2018,08,21,06,16,14.70
2018,08,21,06,17,14.70
2018,08,21,06,18,14.70
2018,08,21,06,19,14.70
2018,08,21,06,20,14.70
2018,08,21,06,21,14.70
2018,08,21,06,22,14.70
2018,08,21,06,23,14.70
2018,08,21,06,24,14.70
2018,08,21,06,25,14.70
2018,08,21,06,26,14.70
2018,08,21,06,27,14.60
2018,08,21,06,28,14.60
2018,08,21,06,29,14.60
2018,08,21,06,30,14.60
2018,08,21,06,31,14.70
2018,08,21,06,32,14.70
2018,08,21,06,33,14.70
2018,08,21,06,34,14.70
2018,08,21,06,35,14.70
2018,08,21,06,36,14.70
2018,08,21,06,37,14.70
2018,08,21,06,38,14.70
2018,08,21,06,39,14.70
2018,08,21,06,40,14.70
2018,08,21,06,41,14.70
2018,08,21,06,42,14.70
2018,08,21,06,43,14.70
2018,08,21,06,44,14.70
2018,08,21,06,45,14.70
2018,08,21,06,46,14.70
2018,08,21,06,47,14.70
2018,08,21,06,48,14.70
2018,08,21,06,49,14.70
2018,08,21,06,50,14.70
2018,08,21,06,51,14.70
2018,08,21,06,52,14.80
2018,08,21,06,53,14.80
2018,08,21,06,54,14.80
2018,08,21,06,55,14.80
2018,08,21,06,56,14.80
2018,08,21,06,57,14.80
2018,08,21,06,58,14.80
2018,08,21,06,59,14.80
2018,08,21,07,00,14.80
2018,08,21,07,01,14.80
2018,08,21,07,02,14.70
2018,08,21,07,03,14.70
2018,08,21,07,04,14.70
2018,08,21,07,05,14.70
2018,08,21,07,06,14.70
2018,08,21,07,07,14.70
2018,08,21,07,08,14.70
2018,08,21,07,09,14.70
2018,08,21,07,10,14.70
2018,08,21,07,11,14.70
2018,08,21,07,12,14.70
2018,08,21,07,13,14.70
2018,08,21,07,14,14.70
2018,08,21,07,15,14.70
2018,08,21,07,16,14.70
2018,08,21,07,17,14.70
2018,08,21,07,18,14.70
2018,08,21,07,19,14.70
2018,08,21,07,20,14.70
2018,08,21,07,21,14.70
2018,08,21,07,22,14.70
2018,08,21,07,23,14.70
2018,08,21,07,24,14.70
2018,08,21,07,25,14.70
2018,08,21,07,26,14.70
2018,08,21,07,27,14.70
2018,08,21,07,28,14.70
2018,08,21,07,29,14.70
2018,08,21,07,30,14.70
2018,08,21,07,31,14.70
2018,08,21,07,32,14.70
2018,08,21,07,33,14.70
2018,08,21,07,34,14.70
2018,08,21,07,35,14.70
2018,08,21,07,36,14.80
2018,08,21,07,37,14.80
2018,08,21,07,38,14.80
2018,08,21,07,39,14.80
2018,08,21,07,40,14.80
2018,08,21,07,41,14.80
2018,08,21,07,42,14.80
2018,08,21,07,43,14.90
2018,08,21,07,44,14.90
2018,08,21,07,45,14.90
2018,08,21,07,46,14.90
2018,08,21,07,47,14.90
2018,08,21,07,48,14.90
2018,08,21,07,49,15.00
2018,08,21,07,50,15.00
2018,08,21,07,51,15.10
2018,08,21,07,52,15.10
2018,08,21,07,53,15.10
2018,08,21,07,54,15.20
2018,08,21,07,55,15.20
2018,08,21,07,56,15.20
2018,08,21,07,57,15.30
2018,08,21,07,58,15.30
2018,08,21,07,59,15.30
2018,08,21,08,00,15.40
2018,08,21,08,01,15.50
2018,08,21,08,02,15.50
2018,08,21,08,03,15.60
2018,08,21,08,04,15.70
2018,08,21,08,05,15.90
2018,08,21,08,06,16.00
2018,08,21,08,07,16.10
2018,08,21,08,08,16.30
2018,08,21,08,09,16.40
2018,08,21,08,10,16.60
2018,08,21,08,11,16.70
2018,08,21,08,12,16.80
2018,08,21,08,13,16.90
2018,08,21,08,14,17.10
2018,08,21,08,15,17.20
2018,08,21,08,16,17.30
2018,08,21,08,17,17.40
2018,08,21,08,18,17.50
2018,08,21,08,19,17.60
2018,08,21,08,20,17.70
2018,08,21,08,21,17.80
2018,08,21,08,22,17.90
2018,08,21,08,23,18.10
2018,08,21,08,24,18.20
2018,08,21,08,25,18.20
2018,08,21,08,26,18.30
2018,08,21,08,27,18.40
2018,08,21,08,28,18.50
2018,08,21,08,29,18.60
2018,08,21,08,30,18.70
2018,08,21,08,31,18.70
2018,08,21,08,32,18.80
2018,08,21,08,33,18.80
2018,08,21,08,34,18.90
2018,08,21,08,35,18.90
2018,08,21,08,36,18.90
2018,08,21,08,37,19.00
2018,08,21,08,38,19.00
2018,08,21,08,39,19.10
2018,08,21,08,40,19.10
2018,08,21,08,41,19.10
2018,08,21,08,42,19.10
2018,08,21,08,43,19.10
2018,08,21,08,44,19.20
2018,08,21,08,45,19.20
2018,08,21,08,46,19.20
2018,08,21,08,47,19.20
2018,08,21,08,48,19.20
2018,08,21,08,49,19.30
2018,08,21,08,50,19.30
2018,08,21,08,51,19.30
2018,08,21,08,52,19.30
2018,08,21,08,53,19.30
2018,08,21,08,54,19.30
2018,08,21,08,55,19.30
2018,08,21,08,56,19.30
2018,08,21,08,57,19.30
2018,08,21,08,58,19.40
2018,08,21,08,59,19.40
2018,08,21,09,00,19.40
2018,08,21,09,01,19.40
2018,08,21,09,02,19.40
2018,08,21,09,03,19.50
2018,08,21,09,04,19.50
2018,08,21,09,05,19.60
2018,08,21,09,06,19.60
2018,08,21,09,07,19.60
2018,08,21,09,08,19.70
2018,08,21,09,09,19.70
2018,08,21,09,10,19.70
2018,08,21,09,11,19.80
2018,08,21,09,12,19.80
2018,08,21,09,13,19.80
2018,08,21,09,14,19.90
2018,08,21,09,15,19.90
2018,08,21,09,16,20.00
2018,08,21,09,17,20.00
2018,08,21,09,18,20.10
2018,08,21,09,19,20.20
2018,08,21,09,20,20.30
2018,08,21,09,21,20.40
2018,08,21,09,22,20.40
2018,08,21,09,23,20.50
2018,08,21,09,24,20.60
2018,08,21,09,25,20.70
2018,08,21,09,26,20.70
2018,08,21,09,27,20.80
2018,08,21,09,28,20.90
2018,08,21,09,29,20.90
2018,08,21,09,30,21.00
2018,08,21,09,31,21.00
2018,08,21,09,32,21.10
2018,08,21,09,33,21.10
2018,08,21,09,34,21.20
2018,08,21,09,35,21.20
2018,08,21,09,36,21.20
2018,08,21,09,37,21.20
2018,08,21,09,38,21.20
2018,08,21,09,39,21.20
2018,08,21,09,40,21.20
2018,08,21,09,41,21.30
2018,08,21,09,42,21.30
2018,08,21,09,43,21.30
2018,08,21,09,44,21.30
2018,08,21,09,45,21.30
2018,08,21,09,46,21.30
2018,08,21,09,47,21.30
2018,08,21,09,48,21.30
2018,08,21,09,49,21.40
2018,08,21,09,50,21.40
2018,08,21,09,51,21.40
2018,08,21,09,52,21.50
2018,08,21,09,53,21.50
2018,08,21,09,54,21.60
2018,08,21,09,55,21.60
2018,08,21,09,56,21.60
2018,08,21,09,57,21.70
2018,08,21,09,58,21.70
2018,08,21,09,59,21.70
2018,08,21,10,00,21.70
2018,08,21,10,01,21.70
2018,08,21,10,02,21.70
2018,08,21,10,03,21.70
2018,08,21,10,04,21.80
2018,08,21,10,05,21.80
2018,08,21,10,06,21.70
2018,08,21,10,07,21.70
2018,08,21,10,08,21.70
2018,08,21,10,09,21.80
2018,08,21,10,10,21.70
2018,08,21,10,11,21.70
2018,08,21,10,12,21.70
2018,08,21,10,13,21.70
2018,08,21,10,14,21.70
2018,08,21,10,15,21.70
2018,08,21,10,16,21.70
2018,08,21,10,17,21.70
2018,08,21,10,18,21.80
2018,08,21,10,19,21.80
2018,08,21,10,20,21.80
2018,08,21,10,21,21.90
2018,08,21,10,22,21.90
2018,08,21,10,23,21.90
2018,08,21,10,24,22.00
2018,08,21,10,25,22.00
2018,08,21,10,26,22.00
2018,08,21,10,27,22.10
2018,08,21,10,28,22.10
2018,08,21,10,29,22.10
2018,08,21,10,30,22.20
2018,08,21,10,31,22.20
2018,08,21,10,32,22.30
2018,08,21,10,33,22.40
2018,08,21,10,34,22.40
2018,08,21,10,35,22.50
2018,08,21,10,36,22.60
2018,08,21,10,37,22.70
2018,08,21,10,38,22.70
2018,08,21,10,39,22.80
2018,08,21,10,40,22.90
2018,08,21,10,41,22.90
2018,08,21,10,42,23.00
2018,08,21,10,43,23.00
2018,08,21,10,44,23.10
2018,08,21,10,45,23.10
2018,08,21,10,46,23.20
2018,08,21,10,47,23.20
2018,08,21,10,48,23.30
2018,08,21,10,49,23.30
2018,08,21,10,50,23.30
2018,08,21,10,51,23.40
2018,08,21,10,52,23.40
2018,08,21,10,53,23.50
2018,08,21,10,54,23.50
2018,08,21,10,55,23.60
2018,08,21,10,56,23.60
2018,08,21,10,57,23.60
2018,08,21,10,58,23.60
2018,08,21,10,59,23.60
2018,08,21,11,00,23.60
2018,08,21,11,01,23.60
2018,08,21,11,02,23.60
2018,08,21,11,03,23.60
2018,08,21,11,04,23.60
2018,08,21,11,05,23.60
2018,08,21,11,06,23.60
2018,08,21,11,07,23.60
2018,08,21,11,08,23.60
2018,08,21,11,09,23.60
2018,08,21,11,10,23.60
2018,08,21,11,11,23.60
2018,08,21,11,12,23.60
2018,08,21,11,13,23.60
2018,08,21,11,14,23.70
2018,08,21,11,15,23.70
2018,08,21,11,16,23.70
2018,08,21,11,17,23.70
2018,08,21,11,18,23.70
2018,08,21,11,19,23.80
2018,08,21,11,20,23.80
2018,08,21,11,21,23.80
2018,08,21,11,22,23.90
2018,08,21,11,23,23.90
2018,08,21,11,24,23.90
2018,08,21,11,25,24.00
2018,08,21,11,26,24.10
2018,08,21,11,27,24.10
2018,08,21,11,28,24.20
2018,08,21,11,29,24.20
2018,08,21,11,30,24.30
2018,08,21,11,31,24.30
2018,08,21,11,32,24.40
2018,08,21,11,33,24.40
2018,08,21,11,34,24.40
2018,08,21,11,35,24.40
2018,08,21,11,36,24.50
2018,08,21,11,37,24.50
2018,08,21,11,38,24.60
2018,08,21,11,39,24.60
2018,08,21,11,40,24.60
2018,08,21,11,41,24.70
2018,08,21,11,42,24.70
2018,08,21,11,43,24.80
2018,08,21,11,44,24.80
2018,08,21,11,45,24.80
2018,08,21,11,46,24.80
2018,08,21,11,47,24.80
2018,08,21,11,48,24.80
2018,08,21,11,49,24.80
2018,08,21,11,50,24.80
2018,08,21,11,51,24.80
2018,08,21,11,52,24.80
2018,08,21,11,53,24.90
2018,08,21,11,54,25.00
2018,08,21,11,55,25.10
2018,08,21,11,56,25.20
2018,08,21,11,57,25.20
2018,08,21,11,58,25.20
2018,08,21,11,59,25.20
2018,08,21,12,00,25.20
2018,08,21,12,01,25.10
2018,08,21,12,02,25.10
2018,08,21,12,03,25.10
2018,08,21,12,04,25.20
2018,08,21,12,05,25.30
2018,08,21,12,06,25.30
2018,08,21,12,07,25.30
2018,08,21,12,08,25.40
2018,08,21,12,09,25.40
2018,08,21,12,10,25.40
2018,08,21,12,11,25.40
2018,08,21,12,12,25.50
2018,08,21,12,13,25.50
2018,08,21,12,14,25.60
2018,08,21,12,15,25.60
2018,08,21,12,16,25.60
2018,08,21,12,17,25.70
2018,08,21,12,18,25.80
2018,08,21,12,19,25.80
2018,08,21,12,20,25.90
2018,08,21,12,21,26.00
2018,08,21,12,22,26.10
2018,08,21,12,23,26.20
2018,08,21,12,24,26.30
2018,08,21,12,25,26.40
2018,08,21,12,26,26.40
2018,08,21,12,27,26.50
2018,08,21,12,28,26.50
2018,08,21,12,29,26.50
2018,08,21,12,30,26.40
2018,08,21,12,31,26.40
2018,08,21,12,32,26.40
2018,08,21,12,33,26.50
2018,08,21,12,34,26.50
2018,08,21,12,35,26.60
2018,08,21,12,36,26.60
2018,08,21,12,37,26.60
2018,08,21,12,38,26.70
2018,08,21,12,39,26.70
2018,08,21,12,40,26.80
2018,08,21,12,41,26.90
2018,08,21,12,42,27.00
2018,08,21,12,43,27.10
2018,08,21,12,44,27.10
2018,08,21,12,45,27.00
2018,08,21,12,46,26.90
2018,08,21,12,47,26.90
2018,08,21,12,48,26.80
2018,08,21,12,49,26.80
2018,08,21,12,50,26.80
2018,08,21,12,51,26.90
2018,08,21,12,52,26.90
2018,08,21,12,53,27.00
2018,08,21,12,54,27.10
2018,08,21,12,55,27.20
2018,08,21,12,56,27.30
2018,08,21,12,57,27.40
2018,08,21,12,58,27.50
2018,08,21,12,59,27.50
2018,08,21,13,00,27.50
2018,08,21,13,01,27.50
2018,08,21,13,02,27.60
2018,08,21,13,03,27.60
2018,08,21,13,04,27.60
2018,08,21,13,05,27.60
2018,08,21,13,06,27.60
2018,08,21,13,07,27.50
2018,08,21,13,08,27.30
2018,08,21,13,09,27.20
2018,08,21,13,10,27.10
2018,08,21,13,11,27.10
2018,08,21,13,12,27.00
2018,08,21,13,13,27.00
2018,08,21,13,14,27.00
2018,08,21,13,15,27.00
2018,08,21,13,16,27.10
2018,08,21,13,17,27.20
2018,08,21,13,18,27.30
2018,08,21,13,19,27.40
2018,08,21,13,20,27.50
2018,08,21,13,21,27.60
2018,08,21,13,22,27.60
2018,08,21,13,23,27.70
2018,08,21,13,24,27.70
2018,08,21,13,25,27.60
2018,08,21,13,26,27.50
2018,08,21,13,27,27.50
2018,08,21,13,28,27.40
2018,08,21,13,29,27.30
2018,08,21,13,30,27.30
2018,08,21,13,31,27.30
2018,08,21,13,32,27.30
2018,08,21,13,33,27.30
2018,08,21,13,34,27.30
2018,08,21,13,35,27.40
2018,08,21,13,36,27.40
2018,08,21,13,37,27.40
2018,08,21,13,38,27.50
2018,08,21,13,39,27.60
2018,08,21,13,40,27.60
2018,08,21,13,41,27.60
2018,08,21,13,42,27.70
2018,08,21,13,43,27.70
2018,08,21,13,44,27.80
2018,08,21,13,45,27.90
2018,08,21,13,46,27.90
2018,08,21,13,47,28.00
2018,08,21,13,48,28.20
2018,08,21,13,49,28.30
2018,08,21,13,50,28.40
2018,08,21,13,51,28.40
2018,08,21,13,52,28.50
2018,08,21,13,53,28.50
2018,08,21,13,54,28.60
2018,08,21,13,55,28.60
2018,08,21,13,56,28.70
2018,08,21,13,57,28.80
2018,08,21,13,58,28.80
2018,08,21,13,59,28.90
2018,08,21,14,00,28.90
2018,08,21,14,01,28.90
2018,08,21,14,02,28.90
2018,08,21,14,03,29.00
2018,08,21,14,04,29.00
2018,08,21,14,05,29.10
2018,08,21,14,06,29.10
2018,08,21,14,07,29.10
2018,08,21,14,08,29.10
2018,08,21,14,09,29.00
2018,08,21,14,10,29.00
2018,08,21,14,11,28.90
2018,08,21,14,12,28.70
2018,08,21,14,13,28.50
2018,08,21,14,14,28.30
2018,08,21,14,15,28.20
2018,08,21,14,16,28.10
2018,08,21,14,17,28.00
2018,08,21,14,18,27.90
2018,08,21,14,19,27.90
2018,08,21,14,20,27.80
2018,08,21,14,21,27.80
2018,08,21,14,22,27.80
2018,08,21,14,23,27.90
2018,08,21,14,24,27.90
2018,08,21,14,25,27.90
2018,08,21,14,26,27.90
2018,08,21,14,27,27.90
2018,08,21,14,28,28.00
2018,08,21,14,29,28.00
2018,08,21,14,30,28.00
2018,08,21,14,31,27.90
2018,08,21,14,32,27.90
2018,08,21,14,33,27.80
2018,08,21,14,34,27.80
2018,08,21,14,35,27.80
2018,08,21,14,36,27.70
2018,08,21,14,37,27.70
2018,08,21,14,38,27.70
2018,08,21,14,39,27.70
2018,08,21,14,40,27.70
2018,08,21,14,41,27.70
2018,08,21,14,42,27.60
2018,08,21,14,43,27.60
2018,08,21,14,44,27.60
2018,08,21,14,45,27.60
2018,08,21,14,46,27.50
2018,08,21,14,47,27.50
2018,08,21,14,48,27.40
2018,08,21,14,49,27.40
2018,08,21,14,50,27.30
2018,08,21,14,51,27.30
2018,08,21,14,52,27.30
2018,08,21,14,53,27.30
2018,08,21,14,54,27.30
2018,08,21,14,55,27.40
2018,08,21,14,56,27.40
2018,08,21,14,57,27.40
2018,08,21,14,58,27.40
2018,08,21,14,59,27.40
2018,08,21,15,00,27.50
2018,08,21,15,01,27.60
2018,08,21,15,02,27.70
2018,08,21,15,03,27.80
2018,08,21,15,04,27.90
2018,08,21,15,05,28.00
2018,08,21,15,06,28.10
2018,08,21,15,07,28.10
2018,08,21,15,08,28.10
2018,08,21,15,09,28.20
2018,08,21,15,10,28.20
2018,08,21,15,11,28.20
2018,08,21,15,12,28.20
2018,08,21,15,13,28.30
2018,08,21,15,14,28.30
2018,08,21,15,15,28.30
2018,08,21,15,16,28.30
2018,08,21,15,17,28.40
2018,08,21,15,18,28.40
2018,08,21,15,19,28.40
2018,08,21,15,20,28.40
2018,08,21,15,21,28.50
2018,08,21,15,22,28.50
2018,08,21,15,23,28.50
2018,08,21,15,24,28.50
2018,08,21,15,25,28.50
2018,08,21,15,26,28.40
2018,08,21,15,27,28.30
2018,08,21,15,28,28.30
2018,08,21,15,29,28.20
2018,08,21,15,30,28.10
2018,08,21,15,31,28.10
2018,08,21,15,32,28.10
2018,08,21,15,33,28.10
2018,08,21,15,34,28.10
2018,08,21,15,35,28.10
2018,08,21,15,36,28.10
2018,08,21,15,37,28.10
2018,08,21,15,38,28.10
2018,08,21,15,39,28.10
2018,08,21,15,40,28.10
2018,08,21,15,41,28.10
2018,08,21,15,42,28.10
2018,08,21,15,43,28.00
2018,08,21,15,44,28.10
2018,08,21,15,45,28.10
2018,08,21,15,46,28.10
2018,08,21,15,47,28.10
2018,08,21,15,48,28.20
2018,08,21,15,49,28.20
2018,08,21,15,50,28.30
2018,08,21,15,51,28.30
2018,08,21,15,52,28.40
2018,08,21,15,53,28.50
2018,08,21,15,54,28.50
2018,08,21,15,55,28.60
2018,08,21,15,56,28.70
2018,08,21,15,57,28.70
2018,08,21,15,58,28.80
2018,08,21,15,59,28.90
2018,08,21,16,00,28.90
2018,08,21,16,01,28.90
2018,08,21,16,02,29.00
2018,08,21,16,03,29.10
2018,08,21,16,04,29.10
2018,08,21,16,05,29.10
2018,08,21,16,06,29.20
2018,08,21,16,07,29.20
2018,08,21,16,08,29.20
2018,08,21,16,09,29.10
2018,08,21,17,04,29.10
2018,08,21,17,05,29.10
2018,08,21,17,06,29.10
2018,08,21,17,07,29.10
2018,08,21,17,08,29.10
2018,08,21,17,09,29.10
2018,08,21,17,10,29.20
2018,08,21,17,11,29.20
2018,08,21,17,12,29.10
2018,08,21,17,13,29.10
2018,08,21,17,14,29.10
2018,08,21,17,15,29.10
2018,08,21,17,16,29.00
2018,08,21,17,17,29.00
2018,08,21,17,18,28.90
2018,08,21,17,19,28.90
2018,08,21,17,20,28.90
2018,08,21,17,21,28.90
2018,08,21,17,22,28.90
2018,08,21,17,23,28.90
2018,08,21,17,24,28.90
2018,08,21,17,25,28.80
2018,08,21,17,26,28.80
2018,08,21,17,27,28.80
2018,08,21,17,28,28.70
2018,08,21,17,29,28.70
2018,08,21,17,30,28.70
2018,08,21,17,31,28.70
2018,08,21,17,32,28.60
2018,08,21,17,33,28.60
2018,08,21,17,34,28.60
2018,08,21,17,35,28.50
2018,08,21,17,36,28.50
2018,08,21,17,37,28.40
2018,08,21,17,38,28.40
2018,08,21,17,39,28.40
2018,08,21,17,40,28.40
2018,08,21,17,41,28.40
2018,08,21,17,42,28.40
2018,08,21,17,43,28.40
2018,08,21,17,44,28.40
2018,08,21,17,45,28.50
2018,08,21,17,46,28.50
2018,08,21,17,47,28.50
2018,08,21,17,48,28.50
2018,08,21,17,49,28.50
2018,08,21,17,50,28.50
2018,08,21,17,51,28.40
2018,08,21,17,52,28.30
2018,08,21,17,53,28.20
2018,08,21,17,54,28.20
2018,08,21,17,55,28.10
2018,08,21,17,56,28.00
2018,08,21,17,57,28.00
2018,08,21,17,58,27.90
2018,08,21,17,59,27.90
2018,08,21,18,00,27.80
2018,08,21,18,01,27.80
2018,08,21,18,02,27.70
2018,08,21,18,03,27.70
2018,08,21,18,04,27.60
2018,08,21,18,05,27.60
2018,08,21,18,06,27.60
2018,08,21,18,07,27.60
2018,08,21,18,08,27.60
2018,08,21,18,09,27.60
2018,08,21,18,10,27.60
2018,08,21,18,11,27.60
2018,08,21,18,12,27.60
2018,08,21,18,13,27.60
2018,08,21,18,14,27.50
2018,08,21,18,15,27.50
2018,08,21,18,16,27.40
2018,08,21,18,17,27.40
2018,08,21,18,18,27.40
2018,08,21,18,19,27.40
2018,08,21,18,20,27.40
2018,08,21,18,21,27.30
2018,08,21,18,22,27.30
2018,08,21,18,23,27.30
2018,08,21,18,24,27.30
2018,08,21,18,25,27.30
2018,08,21,18,26,27.20
2018,08,21,18,27,27.20
2018,08,21,18,28,27.20
2018,08,21,18,29,27.30
2018,08,21,18,30,27.30
2018,08,21,18,31,27.20
2018,08,21,18,32,27.20
2018,08,21,18,33,27.10
2018,08,21,18,34,27.10
2018,08,21,18,35,27.00
2018,08,21,18,36,27.00
2018,08,21,18,37,27.00
2018,08,21,18,38,26.90
2018,08,21,18,39,26.90
2018,08,21,18,40,26.90
2018,08,21,18,41,26.80
2018,08,21,18,42,26.80
2018,08,21,18,43,26.80
2018,08,21,18,44,26.70
2018,08,21,18,45,26.70
2018,08,21,18,46,26.70
2018,08,21,18,47,26.70
2018,08,21,18,48,26.70
2018,08,21,18,49,26.70
2018,08,21,18,50,26.70
2018,08,21,18,51,26.70
2018,08,21,18,52,26.60
2018,08,21,18,53,26.60
2018,08,21,18,54,26.60
2018,08,21,18,55,26.50
2018,08,21,18,56,26.50
2018,08,21,18,57,26.40
2018,08,21,18,58,26.40
2018,08,21,18,59,26.40
2018,08,21,19,00,26.40
2018,08,21,19,01,26.40
2018,08,21,19,02,26.40
2018,08,21,19,03,26.40
2018,08,21,19,04,26.40
2018,08,21,19,05,26.40
2018,08,21,19,06,26.40
2018,08,21,19,07,26.40
2018,08,21,19,08,26.40
2018,08,21,19,09,26.40
2018,08,21,19,10,26.40
2018,08,21,19,11,26.40
2018,08,21,19,12,26.40
2018,08,21,19,13,26.40